STARLINK-36740

Last updated on Sat Mar 14 2026 00:02:07 GMT+0000 (Coordinated Universal Time)

1 67741U 26026W 26072.58334491 -.01782209 00000+0 -46577-1 0 9995 2 67741 97.2855 127.1897 0001435 71.4228 20.5107 15.41851237 5945

Satellite not in orbit